Flag for Kosovo Weather past 2 weeks in Uroševac, Kosovo

Now
32 °F

Light rain. Mostly cloudy.


Feels Like: 32 °F
Forecast: 31 / 46 °F
Wind: No wind

Location: Skopje-Petrovec

Current Time: Feb 1, 2015 at 6:49:42 AM

Latest Report: Feb 1, 2015 at 6:30 AM


Visibility: 3 mi

Pressure: 29.18 "Hg

Humidity: 100%

Dew point: 32 °F

Location of UroševacLocation

Historic Weather in Uroševac — Graph

°F

Uroševac temperature yesterday

Maximum temperature yesterday: 50 °F (at 1:00 PM)
Minimum temperature yesterday: 37 °F (at 8:00 AM)
Average temperature yesterday: 44 °F

Past Weeks' High & Low Weather Summary

 TemperatureHumidityPressure
High55 °F (Jan 21, 2:00 PM)100% (Jan 18, 2:00 AM)30.33 "Hg (Jan 18, 2:00 AM)
Low27 °F (Jan 17, 6:00 AM)47% (Jan 31, 1:30 PM)29.09 "Hg (Jan 30, 10:00 PM)
Average41 °F85%29.86 "Hg
* Reported Jan 17 6:00 AM — Feb 1 6:00 AM, Uroševac, Weather by CustomWeather, © 2014

Note: Actual official high and low records may vary slightly from our data, if they occured in-between our weather recording intervals... More about our weather records

Advertising

Uroševac weather history for previous 24 hours

 ConditionsComfort  
Time TempWeatherWind HumidityBarometerVisibility
6:00 AM
Feb 1
32 °FLight rain. Mostly cloudy.No wind100%29.18 "HgN/A
5:30 AM32 °FLight freezing rain. Mostly cloudy.No wind100%29.18 "HgN/A
5:00 AM32 °FMostly cloudy.No wind93%29.21 "Hg4 mi
4:30 AM32 °FSnow. Mostly cloudy.No wind93%29.21 "Hg1 mi
4:00 AM32 °FSnow. Mostly cloudy.No wind93%29.21 "Hg1 mi
3:30 AM32 °FLight snow. Mostly cloudy.No wind100%29.21 "Hg2 mi
2:30 AM34 °FLight snow. Mostly cloudy.2 mph93%29.24 "Hg4 mi
2:00 AM34 °FRain. Mostly cloudy.2 mph93%29.24 "HgN/A
1:30 AM36 °FLight rain. Mostly cloudy.2 mph87%29.27 "Hg5 mi
1:00 AM37 °FRain. Mostly cloudy.No wind87%29.27 "HgN/A
12:30 AM37 °FRain. Mostly cloudy.3 mph93%29.30 "HgN/A
12:00 AM37 °FDrizzle. Mostly cloudy.3 mph93%29.30 "HgN/A
11:30 PM
Jan 31
37 °FRain. Mostly cloudy.6 mph93%29.27 "HgN/A
11:00 PM39 °FLight rain. Mostly cloudy.5 mph93%29.30 "HgN/A
10:30 PM39 °FLight rain. Mostly cloudy.No wind93%29.30 "HgN/A
10:00 PM39 °FRain. Mostly cloudy.No wind93%29.30 "HgN/A
9:30 PM41 °FRain. Mostly cloudy.2 mph93%29.30 "HgN/A
9:00 PM41 °FRain. Mostly cloudy.2 mph93%29.30 "HgN/A
8:30 PM43 °FLight rain. Mostly cloudy.No wind93%29.30 "HgN/A
8:00 PM43 °FLight rain. Mostly cloudy.No wind93%29.30 "HgN/A
7:30 PM43 °FRain. Mostly cloudy.2 mph93%29.33 "HgN/A
7:00 PM43 °FRain. Mostly cloudy.2 mph93%29.33 "HgN/A
6:30 PM43 °FRain. Mostly cloudy.5 mph93%29.33 "HgN/A
6:00 PM45 °FLight rain. Mostly cloudy.3 mph81%29.30 "HgN/A
5:30 PM45 °FLight rain. Mostly cloudy.5 mph81%29.30 "HgN/A
5:00 PM46 °FDrizzle. Mostly cloudy.9 mph71%29.30 "HgN/A
4:30 PM48 °FLight rain. More clouds than sun.12 mph66%29.27 "HgN/A
4:00 PM48 °FDrizzle. More clouds than sun.9 mph66%29.27 "HgN/A
3:30 PM50 °FMostly cloudy.13 mph54%29.27 "HgN/A
3:00 PM50 °FBroken clouds.12 mph54%29.27 "HgN/A
2:30 PM50 °FBroken clouds.13 mph47%29.27 "HgN/A
2:00 PM50 °FBroken clouds.15 mph47%29.27 "HgN/A
1:30 PM50 °FBroken clouds.3 mph47%29.27 "HgN/A
1:00 PM50 °FBroken clouds.1 mph50%29.30 "HgN/A
12:30 PM48 °FBroken clouds.1 mph54%29.30 "HgN/A
12:00 PM48 °FBroken clouds.2 mph50%29.33 "HgN/A
11:30 AM48 °FPartly sunny.No wind54%29.33 "HgN/A
11:00 AM48 °FSunny.No wind54%29.33 "Hg10 mi
10:30 AM48 °FSunny.2 mph54%29.33 "Hg10 mi
10:00 AM46 °FSunny.2 mph62%29.33 "Hg10 mi
9:30 AM45 °FSunny.No wind61%29.33 "Hg10 mi
9:00 AM43 °FPartly sunny.No wind66%29.33 "HgN/A
8:30 AM39 °FPartly sunny.No wind81%29.33 "HgN/A
8:00 AM37 °FPassing clouds.1 mph81%29.33 "HgN/A
7:30 AM39 °FPassing clouds.1 mph75%29.33 "HgN/A
7:00 AM39 °FPassing clouds.3 mph75%29.30 "HgN/A
6:30 AM39 °FClear.9 mph75%29.30 "Hg10 mi
6:00 AM41 °FClear.12 mph70%29.27 "Hg10 mi
Weather by CustomWeather, © 2014

See weather overviewHow to use our weather pages